"Pseudo-MPEC" for CARCTF2

Created 2024 Sep 6 20:22:07 UT using Find_Orb

Click here for an explanation of pseudo-MPECs

 
 Astrometry: 
     CARCTF2*1C2024 09 05.25466122 52 56.940+30 15 35.10   ~9577       VNEOCPG96
     CARCTF2 1C2024 09 05.26032722 52 56.220+30 18 38.40   ~9577       VNEOCPG96
     CARCTF2 1C2024 09 05.26598922 52 55.470+30 21 38.90   ~9577       VNEOCPG96
     CARCTF2 1C2024 09 05.27164822 52 54.750+30 24 40.00   ~9577 20.06GVNEOCPG96
     CARCTF2 KC2024 09 05.29697722 52 51.499+30 38 08.77   ~957b 20.47GVNEOCPI52
     CARCTF2  C2024 09 05.29753122 52 50.586+30 38 22.37   ~9587 20.0 GVNEOCPH01
     CARCTF2 KC2024 09 05.29777322 52 51.409+30 38 35.12   ~957b       VNEOCPI52
     CARCTF2 KC2024 09 05.29937422 52 51.175+30 39 26.06   ~957b       VNEOCPI52
     CARCTF2  C2024 09 05.30125422 52 50.110+30 40 21.28   ~9587 19.7 GVNEOCPH01
     CARCTF2  C2024 09 05.31116022 52 48.811+30 45 37.98   ~9587 19.9 GVNEOCPH01
     CARCTF2  C2024 09 05.32350022 52 47.214+30 52 12.34   ~9587 19.8 GVNEOCPH01
     CARCTF2 KB2024 09 05.32841 22 52 44.436+30 54 29.09   ~958M 19.7 RZNEOCPH36
     CARCTF2 KB2024 09 05.33718 22 52 43.378+30 59 06.97   ~958M 19.4 RZNEOCPH36
     CARCTF2 KC2024 09 05.38479722 52 40.084+31 25 01.52   ~959b 19.79GVNEOCPI52
     CARCTF2 KC2024 09 05.38639322 52 39.860+31 25 51.46   ~959b       VNEOCPI52
     CARCTF2 KC2024 09 05.38719722 52 39.774+31 26 17.59   ~959b 19.55GVNEOCPI52
     CARCTF2 1C2024 09 05.85883 22 52 27.36 +35 46 19.2    ~95L7 19.9 VXNEOCP033
     CARCTF2 1C2024 09 05.85938 22 52 27.31 +35 46 38.1    ~95L7 20.1 VXNEOCP033
     CARCTF2 1C2024 09 05.85992 22 52 27.24 +35 46 56.9    ~95L7 20.2 VXNEOCP033
     CARCTF2 KB2024 09 05.98282 22 52 08.99 +36 57 39.4    ~9607 19.8 GXNEOCPM45
     CARCTF2 KB2024 09 05.98628 22 52 08.55 +36 59 38.1    ~9607 19.9 GXNEOCPM45
     CARCTF2 KB2024 09 05.98973 22 52 08.11 +37 01 36.4    ~9607 20.0 GXNEOCPM45
     CARCTF2 KC2024 09 06.18139122 52 05.79 +38 53 18.1    ~964q 20.4 GVNEOCPH21
     CARCTF2 KC2024 09 06.18232922 52 05.66 +38 53 51.2    ~964q 20.4 GVNEOCPH21
     CARCTF2 KC2024 09 06.18408722 52 05.40 +38 54 53.4    ~964q 20.2 GVNEOCPH21

Station data:
(033) Karl Schwarzschild Observatory, Tautenburg  (N50.980139 E11.711240)
   Germany.  Observer B. Stecklum. 1.34-m f/3 Schmidt + CCD.
(G96) Mt. Lemmon Survey  (N32.442729 W110.788720)  US/Arizona.  Observer E.
   J. Christensen. 1.5-m reflector + 10K CCD.
(H01) Magdalena Ridge Observatory, Socorro  (N33.984833 W107.189333)  US/New
   Mexico.  Observers W. H. Ryan, E. V. Ryan. Measurer W. H. Ryan. 2.4-m
   f/8.9 reflector + CCD.
(H21) Astronomical Research Observatory, Westfield  (N39.483054 W87.968270)
   US/Illinois.  Observer R. Holmes. Measurers S. Foglia, L. Buzzi, T.
   Linder, R. Holmes. 0.76-m f/3.0 astrograph + CCD0.81-m f/4.0 astrograph +
   CCD0.61-m f/4.5 astrograph + CCD0.40-m f/5.32 astrograph + CCD.
(H36) Sandlot Observatory, Scranton  (N38.797718 W95.706550)  US/Kansas.
   Observer G. Hug. 0.56-m reflector + CCD.
(I52) Steward Observatory, Mt. Lemmon Station  (N32.442570 W110.788920)
   US/Arizona.  Observers T. A. Pruyne, B. M. Africano, E. J. Christensen, G.
   A. Farneth, D. C. Fuls, A. R. Gibbs, A. D. Grauer, H. Gröller, J. A.
   Johnson, R. A. Kowalski, S. M. Larson, G. J. Leonard, D. Rankin, R. L.
   Seaman, F. C. Shelly, K. W. Wierzchoś. 1.0-m prime focus + CCD.
(M45) Starhopper Observatory, Sfantu Gheorghe  (N45.865582 E25.768900)
   Romania.  Observer F. Ursache. 0.41-m f/7.5 reflector + CMO.

Orbital elements:  CARCTF2
   Perihelion 2024 Oct 20.81471 +/- 0.0285 TT = 19:33:10 (JD 2460604.31471)
Epoch 2024 Sep  6.0 TT = JDT 2460559.5   Earth MOID: 0.0389   Ma: 0.0599
M 340.60649186 +/- 0.07             (J2000 ecliptic)             AutoNEOCP
n   0.43274872 +/- 0.00133          Peri.   66.45152 +/- 0.022
a   1.73106026 +/- 0.00354          Node   336.34289 +/- 0.0030
e   0.4947044 +/- 0.00113           Incl.   10.99531 +/- 0.019
P   2.278/831.876d         H 25.40  G  0.15   U  8.3
q 0.87469708 +/- 0.000198    Q 2.58742344 +/- 0.00725
From 25 observations 2024 Sept. 5-6 (22.3 hr); mean residual 0".42
Residuals in arcseconds: 
240905 G96  .06+  1.8-    240905 H01  .04-  .29+    240905 033  .04+  .07+    
240905 G96  .00   .44+    240905 H01  .04+  .21+    240905 M45  .23-  .08-    
240905 G96  .38-  .02-    240905 H36  .06+  1.6+    240905 M45  .02-  .06-    
240905 G96  .31-  .19+    240905 H36  .08-  .13-    240905 M45  .16+  .11-    
240905 I52  .26+  .98-    240905 I52  .10+  .58+    240906 H21  .08-  .11+    
240905 H01  .02-  .21+    240905 I52  .23-  .61-    240906 H21  .01+  .05+    
240905 I52  .45+  .09-    240905 I52  .06-  .24-    240906 H21  .01-  .09+    
240905 I52  .14+  .36-    240905 033  .03+  .16-    
240905 H01  .08+  .16+    240905 033  .16+  .17-    

Ephemerides (geocentric):
Date (UTC) HH   RA             Dec           delta  r     elong  mag " sig PA
---- --------  ------------   ------------  ------ ------ -----  --- --------
2024 09 06 20  22 51 12.954   +45 23 58.09  .04098 1.0338 128.4 20.4 .616   9
2024 09 06 21  22 51 09.456   +45 49 26.63  .04094 1.0335 128.0 20.4 .674   9
2024 09 06 22  22 51 05.898   +46 14 58.00  .04090 1.0332 127.6 20.4 .734   8
2024 09 06 23  22 51 02.280   +46 40 32.03  .04086 1.0330 127.2 20.4 .797   7
2024 09 07 00  22 50 58.599   +47 06 08.57  .04083 1.0327 126.7 20.4 .862   7
2024 09 07 01  22 50 54.855   +47 31 47.44  .04080 1.0325 126.3 20.4 .929   7
2024 09 07 02  22 50 51.044   +47 57 28.47  .04077 1.0322 125.9 20.4 1.00   6
2024 09 07 03  22 50 47.167   +48 23 11.51  .04074 1.0319 125.5 20.5 1.07   6
2024 09 07 04  22 50 43.220   +48 48 56.39  .04072 1.0317 125.1 20.5 1.14   6
2024 09 07 05  22 50 39.202   +49 14 42.93  .04069 1.0314 124.7 20.5 1.22   5
2024 09 07 06  22 50 35.111   +49 40 30.96  .04067 1.0312 124.3 20.5 1.30   5
2024 09 07 07  22 50 30.945   +50 06 20.31  .04065 1.0309 123.8 20.5 1.38   5
2024 09 07 08  22 50 26.701   +50 32 10.81  .04064 1.0306 123.4 20.5 1.46   5
2024 09 07 09  22 50 22.378   +50 58 02.29  .04062 1.0304 123.0 20.5 1.54   4
2024 09 07 10  22 50 17.973   +51 23 54.56  .04061 1.0301 122.6 20.5 1.63   4
2024 09 07 11  22 50 13.484   +51 49 47.46  .04060 1.0299 122.2 20.5 1.72   4
2024 09 07 12  22 50 08.909   +52 15 40.81  .04060 1.0296 121.8 20.5 1.81   4
2024 09 07 13  22 50 04.244   +52 41 34.44  .04059 1.0293 121.3 20.6 1.90   4
2024 09 07 14  22 49 59.488   +53 07 28.16  .04059 1.0291 120.9 20.6 2.00   3
2024 09 07 15  22 49 54.637   +53 33 21.81  .04059 1.0288 120.5 20.6 2.09   3
2024 09 07 16  22 49 49.688   +53 59 15.21  .04059 1.0286 120.1 20.6 2.19   3
2024 09 07 17  22 49 44.639   +54 25 08.18  .04060 1.0283 119.7 20.6 2.29   3
2024 09 07 18  22 49 39.486   +54 51 00.55  .04061 1.0280 119.2 20.6 2.39   3
2024 09 07 19  22 49 34.226   +55 16 52.13  .04061 1.0278 118.8 20.6 2.49   3
2024 09 07 20  22 49 28.856   +55 42 42.77  .04063 1.0275 118.4 20.6 2.60   3
2024 09 07 21  22 49 23.372   +56 08 32.28  .04064 1.0273 118.0 20.6 2.71   2
2024 09 07 22  22 49 17.770   +56 34 20.50  .04066 1.0270 117.6 20.7 2.82   2
2024 09 07 23  22 49 12.047   +57 00 07.24  .04067 1.0267 117.2 20.7 2.93   2
2024 09 08 00  22 49 06.198   +57 25 52.34  .04070 1.0265 116.8 20.7 3.04   2
2024 09 08 01  22 49 00.220   +57 51 35.63  .04072 1.0262 116.3 20.7 3.15   2
2024 09 08 02  22 48 54.107   +58 17 16.94  .04074 1.0260 115.9 20.7 3.26   2
2024 09 08 03  22 48 47.855   +58 42 56.10  .04077 1.0257 115.5 20.7 3.38   2
2024 09 08 04  22 48 41.460   +59 08 32.95  .04080 1.0255 115.1 20.7 3.50   2
2024 09 08 05  22 48 34.915   +59 34 07.33  .04083 1.0252 114.7 20.8 3.62   2
2024 09 08 06  22 48 28.217   +59 59 39.06  .04087 1.0249 114.3 20.8 3.74   2
2024 09 08 07  22 48 21.359   +60 25 07.99  .04090 1.0247 113.9 20.8 3.86   1
2024 09 08 08  22 48 14.335   +60 50 33.95  .04094 1.0244 113.5 20.8 3.98   1
2024 09 08 09  22 48 07.139   +61 15 56.80  .04098 1.0242 113.0 20.8 4.10   1
2024 09 08 10  22 47 59.766   +61 41 16.38  .04103 1.0239 112.6 20.8 4.23   1
2024 09 08 11  22 47 52.207   +62 06 32.53  .04107 1.0237 112.2 20.8 4.36   1
2024 09 08 12  22 47 44.456   +62 31 45.09  .04112 1.0234 111.8 20.8 4.48   1
2024 09 08 13  22 47 36.506   +62 56 53.93  .04117 1.0231 111.4 20.9 4.61   1
2024 09 08 14  22 47 28.348   +63 21 58.90  .04122 1.0229 111.0 20.9 4.74   1
2024 09 08 15  22 47 19.974   +63 46 59.84  .04128 1.0226 110.6 20.9 4.87   1
2024 09 08 16  22 47 11.376   +64 11 56.63  .04133 1.0224 110.2 20.9 5.00   1
2024 09 08 17  22 47 02.544   +64 36 49.11  .04139 1.0221 109.8 20.9 5.13   1
2024 09 08 18  22 46 53.468   +65 01 37.16  .04145 1.0219 109.4 20.9 5.26   1
2024 09 08 19  22 46 44.138   +65 26 20.63  .04152 1.0216 109.0 21.0 5.39   0